Location: Broletto
(44.6000°N, 10.5833°E)
Time: 02:01:44
(UTC+00:00)

Cosmos 2219 - Pass Details

Date: 18 April 2021
Orbit: 834 x 859 km, 71.1° (Epoch: 08 May)

Event Time Altitude Azimuth Distance (km) Brightness Sun altitude
Exits shadow 20:05:50 34° 151° (SSE) 1,335 3.7 -19.5°
Maximum altitude 20:07:34 45° 107° (ESE) 1,131 3.4 -19.8°
Drops below altitude 10° 20:12:52 10° 37° (NE) 2,455 5.7 -20.5°
Sets 20:15:24 0° 31° (NNE) 3,395 6.5 -20.8°
